THOR ABLESTAR DEB, 3752

Orbit data source: Space-Track

THOR ABLESTAR DEB, 3752 is space debris in LEO originally from a launch on Thu, 29 Jun 1961 UTC launched from the Air Force Eastern Test Range (AFETR). Debris objects in space refer to the collection of defunct objects orbiting the Earth. Examples of debris include non-operational satellites, rocket bodies, and fragments generated from explosions, collisions, or faulty payload assembly.

Loading next visibility...
Identifier
3752, 1961-015JE
Orbit
LEO
Country
Flag of USUS
Related business
Manufacturer
Unknown
Mission
Spacecraft
Bus & Motor
Unknown
Mass
Unknown
Launch date (UTC)
1961-06-29 (65 years ago)
Launch vehicle
Unknown
Launch site
Air Force Eastern Test Range (AFETR)
Object type
Payload
Rocket body
Debris
Shape & HBR
Unknown shape, 0.1 m
Radar Cross Section
Small (<0.1 m²)

Expand to show TLE details & history
Last TLE update: 5 hours ago

TLE from 5 hours ago
0 THOR ABLESTAR DEB
1 03752U 61015JE  26035.28239662  .00000917  00000-0  13274-2 0  9990
2 03752  67.6285  46.0758 0207557 345.6175  30.6179 13.50910265787303
Epoch: 2026-02-04T06:46Z
TLE epoch observation values (Epoch: 2026-02-04T06:46:39.067Z)
Latitude
16.11811°
Longitude
176.75674°
Altitude
938.178 km
Speed
7.45 km/s
True Right ascension
03h 31m 28s
True Declination
16° 01' 44"
Sunlit
Object was in daylight at epoch
Visualization orbit readout
Latitude
Unknown
Longitude
Unknown
Altitude
Unknown
Speed
Unknown
Apparent Right ascension
Unknown
Apparent Declination
Unknown
Sunlit
N/A
Visualization observer readout
Local Sidereal Time
13:59:44
Azimuth
Unknown
Elevation
Unknown
Doppler factor
Unknown
Orbital elements
Apogee altitude
1,221.777 km
Perigee altitude
912.709 km
Semi-major axis
7,445.38 km
Eccentricity
0.02076
Inclination
67.6285°
RAAN
46.0758°
Arg. of periapsis
345.6175°
True anomaly
31.8568°
Mean anomaly
30.6179°
Eccentric anomaly
31.23456°
Mean motion
3.37841 °/min
Orbital period
106.56 mins
BSTAR
0.0013274

Documentation

Showing up to 5 results
|